Regional Weather Roundup
Issued by NWS

Home | Current Version | Previous Version | Text Only | Print | Product List | Glossary On
Versions: 1 2 3 4 5 6 7 8 9 10 11 12 13 14 15 16 17 18 19 20 21 22 23 24 25 26 27 28 29 30 31 32 33 34 35 36 37 38 39 40 41 42 43 44 45 46 47 48 49 50
000
ASUS44 KFWD 210315
RWRTX
NORTH TEXAS HOURLY WEATHER ROUNDUP
NATIONAL WEATHER SERVICE FORT WORTH TX
1000 PM CDT WED AUG 20 2014

NOTE: "FAIR" INDICATES FEW OR NO CLOUDS BELOW 12,000 FEET WITH NO
SIGNIFICANT WEATHER AND/OR OBSTRUCTIONS TO VISIBILITY.

TXZ118-119-210400-
DALLAS/FORT WORTH METROPLEX

CITY           SKY/WX    TMP DP  RH WIND       PRES   REMARKS
DFW AIRPORT    CLEAR     88  70  55 SE16G30   29.93R HX  93
DALLAS LOVE    CLEAR     88  69  53 SE24G33   29.94R HX  92
FTW MEACHAM    CLEAR     90  69  50 SE17G30   29.91R HX  94
DAL-EXECUTIVE  CLEAR     87  70  56 SE13G21   29.94R HX  92
FTW-ALLIANCE   CLEAR     89  67  47 SE15G24   29.91R HX  92
FTW-NAS-JRB    PTCLDY    92  67  43 SE15      29.97R HX  95
FTW-SPINKS       N/A     87  67  52 SE12      29.95R HX  90
ARLINGTON      CLEAR     87  70  56 SE17      29.94R HX  92
GRAND PRAIRIE  CLEAR     87  69  55 SE9G16    29.94R HX  91
ADDISON        CLEAR     88  68  51 SE25G33   29.94R HX  91
MESQUITE       CLEAR     84  66  55 SE10      29.96
LANCASTER      CLEAR     84  69  61 SE8       29.96R
$$

TXZ091>094-102>105-117-120-121-131>134-210400-
NORTH CENTRAL TEXAS

CITY           SKY/WX    TMP DP  RH WIND       PRES   REMARKS
SHRMAN/DENISON CLEAR     87  67  52 SE12      29.94R
GAINESVILLE    CLEAR     82  68  62 SE8       29.94R
BOWIE          CLEAR     86  63  45 SE8       29.92R
BRIDGEPORT     CLEAR     88  59  37 SE8       29.93R
DECATUR        CLEAR     87  63  44 SE12      29.93R
DENTON         CLEAR     89  67  47 SE16      29.92R HX  92
MCKINNEY       CLEAR     85  71  63 S13       29.94R HX  90
GREENVILLE     CLEAR     86  70  58 S9        29.97R HX  90
ROCKWALL       CLEAR     85  69  58 S14G23    29.95R
TERRELL        CLEAR     85  69  58 SE15      29.96R
WAXAHACHIE     CLEAR     84  68  58 SE12G17   29.96R
CLEBURNE       CLEAR     86  70  58 SE15      29.96R HX  90
GRANBURY       CLEAR     90  66  44 SE12      29.94R HX  92
$$

TXZ083>090-098>101-113>116-127>130-139>142-154-155-210400-
WESTERN NORTH TEXAS

CITY           SKY/WX    TMP DP  RH WIND       PRES   REMARKS
WICHITA FALLS  CLEAR     87  59  38 SE12      29.88R
WF-KICKAPOO    CLEAR     88  57  34 SE12      29.90R
VERNON         CLEAR     89  52  27 S12       29.88R
ABILENE        CLEAR     87  59  38 S14       29.95R
ABILENE-DYESS  CLEAR     84  61  46 S12       29.94R
BRECKENRIDGE   CLEAR     91  55  29 S9        29.92R
GRAHAM         CLEAR     89  59  35 SE7       29.90R
MINERAL WELLS  CLEAR     84  64  50 SE6       29.91R
STEPHENVILLE   CLEAR     86  59  40 SE12      29.97R
COMANCHE       CLEAR     85  60  42 SE7       29.95R
BROWNWOOD      CLOUDY    84  57  39 SE6       29.95R
COLEMAN        CLEAR     81  63  53 S7        29.96R
BRADY          CLEAR     82  63  51 SE5       29.97R
$$

TXZ143>147-156>162-174-175-210400-
CENTRAL TEXAS

CITY           SKY/WX    TMP DP  RH WIND       PRES   REMARKS
WACO           CLEAR     85  70  60 SE18      29.95R
WACO-TSTC      CLEAR     84  70  61 S13       29.96R
WACO-MCGREGOR  CLEAR     84  66  54 SE17G24   29.96R
HILLSBORO      CLEAR     85  68  56 SE15      29.95R
CORSICANA      PTCLDY    84  69  60 SE17      29.98R
MEXIA          PTCLDY    82  72  71 SE8G16    29.97R
HEARNE           N/A     82  73  74 SE6       29.98R
CAMERON        CLEAR     83  73  70 SE7       29.96R
TEMPLE         CLEAR     84  66  54 SE16G23   29.96R
KILLEEN        PTCLDY    86  70  58 SE17      29.96R HX  90
KILLEEN-SKYLRK CLEAR     84  66  54 SE13      29.96R
FORT HOOD      CLEAR     87  70  56 SE12G21   29.96R HX  92
GATESVILLE     CLEAR     88  70  55 SE9       29.98R HX  92
HAMILTON       CLEAR     87  65  47 SE14      29.97R
LAMPASAS       PTCLDY    91  68  47 SE7       29.96R HX  94
$$

TXZ095>097-106>112-122>126-135>138-148>153-164>167-210400-
EAST TEXAS

CITY           SKY/WX    TMP DP  RH WIND       PRES   REMARKS
PARIS          CLEAR     82  66  57 SE10      29.97R
SULPHUR SPRNGS CLEAR     86  68  54 S10G18    29.99R
CLARKSVILLE    CLEAR     83  70  64 SE6       29.96R
MOUNT PLEASANT CLEAR     82  70  68 S8        29.99R
GILMER         CLEAR     82  72  69 S7        30.01R
MINEOLA        CLOUDY    82  70  65 SE6       29.99R
TYLER          CLEAR     80  70  71 S8        29.99R
LONGVIEW       CLEAR     81  69  67 S12       29.99R
MARSHALL       CLEAR     80  69  69 S5        30.02R
ATHENS         PTCLDY    77  72  83 SE3       29.98R
PALESTINE      PTCLDY    81  72  73 SE7       30.00R
JACKSONVILLE   PTCLDY    78  72  81 S7G17     30.03R
HENDERSON      PTCLDY    78  70  76 S6        30.01R
NACOGDOCHES    PTCLDY    75  72  88 SE6       30.02R
LUFKIN         PTCLDY    77  72  84 SE5       30.01R
$$

SUPPLEMENTAL OBSERVATIONS (CENTRAL)

CITY           SKY/WX    TMP DP  RH WIND       PRES   REMARKS
LAKE TEXOMA      N/A     86  68  54 SE8         N/A
CADDO GRASSLND   N/A     82  68  61 S5          N/A
PAT MAYSE LAKE   N/A     84  68  58 SE10        N/A
ATHENS           N/A     81  72  74 SE8         N/A
LAKE LIMESTONE   N/A     81  72  74 SE8G17      N/A
MCGREGOR         N/A     84  70  61 SE14        N/A
$$

SUPPLEMENTAL OBSERVATIONS (WEST)

CITY           SKY/WX    TMP DP  RH WIND       PRES   REMARKS
MILLERS CREEK    N/A     88  52  29 S12         N/A
LBJ GRASSLAND    N/A     88  63  42 SE12        N/A
COMANCHE         N/A     84  59  42 S8          N/A
HAMBY            N/A     86  57  37 S12         N/A
IVIE RESERVOIR   N/A     82  63  51 SE5         N/A
COLORADO BEND    N/A     88  63  42 S10         N/A
$$

SUPPLEMENTAL OBSERVATIONS (EAST)

CITY           SKY/WX    TMP DP  RH WIND       PRES   REMARKS
TEXARKANA        N/A     81  72  74 S3          N/A
LINDEN           N/A     81  66  61 S3          N/A
N SABINE NF      N/A     75  72  88 MISG        N/A
$$

SUPPLEMENTAL OBSERVATIONS ARE A COLLECTION OF AUTOMATED INSTRUMENTS
THAT ARE MAINTAINED BY A VARIETY OF FEDERAL AND STATE AGENCIES.
CERTAIN ELEMENTS...SUCH AS HUMIDITY VALUES AND SUSTAINED WIND
SPEEDS...MAY BE APPROXIMATED.



USA.gov is the U.S. government's official web portal to all federal, state and local government web resources and services.